Location: Corralito
(10.2667°N, 66.9500°W)
Time: 19:23:55
(UTC+00:00)

Cosmos 1975 - Pass Details

Date: 23 March 2023
Orbit: 526 x 551 km, 82.5° (Epoch: 08 June)

Event Time Altitude Azimuth Distance (km) Brightness Sun altitude
Rises 23:33:30 0° 191° (S) 2,650 6.4 -14.3°
Reaches altitude 10° 23:35:40 10° 195° (SSW) 1,763 5.5 -14.9°
Maximum altitude 23:39:27 57° 274° (W) 625 3.4 -15.8°
Drops below altitude 10° 23:43:17 10° 354° (N) 1,770 5.5 -16.7°
Sets 23:45:27 0° 358° (N) 2,663 6.4 -17.3°
